Content
SEND FEEDBACK

Daily
Averages
Monthly
Summary
United States of America

ST. LOUIS - SAINT LOUIS UNIVERSITY, MISSOURI


Home > North America > United States > Missouri
Elevation: 177 meters     Latitude: 38 38N     Longitude: 090 14W

WEATHER
 
SELECT A DAY
Number of Records: 186,092;   Date Range: 1/1/95 - 7/29/14
 
SHARE

PRINT THIS DATA

[ ← Previous Day ]
WEATHER ALMANAC - 20 APRIL, 2013
[ Next Day → ]
[ °F ]   °C
Weather ElementAverageHighLow
Temperature7.4 °C13.3 °C (5:53 pm)0.6 °C (6:53 am)
Dewpoint-2.4 °C0 °C (10:53 pm)-5 °C (6:53 pm)
Humidity53.1 %82 % (6:53 am)30 % (3:53 pm)
Barometer1024.7 hPa1027.8 hPa (10:53 pm)1019.6 hPa (1:53 am)
Wind Speed6.1 km/h14.8 km/h (7:53 pm)
Weather ElementAverage
Visibility16.1 km
Wind DirectionESE (117 °)

Weather ElementTotal
Precipitation---
Heating Degree Days11.4 (Base 18.3)
Averaged from 23 records on 20 April, 2013
WEATHER CONDITIONS BREAKOUT
WIND DIRECTION BREAKOUT
WEATHER BY HOUR - 20 APRIL, 2013
[ °F ]   °C
Local TimeTemperatureDewpointHumidityBarometerVisibilityWind DirectionWind SpeedGust SpeedPrecipitationEventsConditions
1:53 AM3.3 °C-2.8 °C65 %1019.6 hPa16.1 kmWest (260°)7.4 km/hClear
2:53 AM2.2 °C-2.2 °C73 %1020 hPa16.1 kmWSW (250°)7.4 km/hClear
3:53 AM1.7 °C-2.2 °C76 %1020.7 hPa16.1 kmWNW (300°)5.6 km/hClear
4:53 AM1.7 °C-2.8 °C72 %1021.7 hPa16.1 kmNorth (350°)9.3 km/hClear
5:53 AM1.7 °C-2.8 °C72 %1022.4 hPa16.1 kmCalmClear
6:53 AM0.6 °C-2.2 °C82 %1023.7 hPa16.1 kmCalmClear
7:53 AM3.9 °C-1.1 °C70 %1024.7 hPa16.1 kmCalmClear
8:53 AM6.1 °C-2.2 °C56 %1025.1 hPa16.1 kmNNE (30°)5.6 km/hClear
9:53 AM7.2 °C-1.7 °C53 %1025.4 hPa16.1 kmCalmClear
10:53 AM8.9 °C-1.7 °C48 %1026.1 hPa16.1 kmNorth (360°)9.3 km/hClear
11:53 AM9.4 °C-3.3 °C41 %1026.1 hPa16.1 kmNW (310°)9.3 km/hClear
12:53 PM10.6 °C-4.4 °C35 %1025.7 hPa16.1 kmCalmClear
1:53 PM11.1 °C-3.3 °C37 %1025.4 hPa16.1 kmCalmClear
2:53 PM12.2 °C-2.8 °C35 %1025.1 hPa16.1 kmVariable7.4 km/hClear
3:53 PM12.8 °C-4.4 °C30 %1024.7 hPa16.1 kmCalmClear
4:53 PM12.8 °C-4.4 °C30 %1024.7 hPa16.1 kmNorth (360°)7.4 km/hClear
5:53 PM13.3 °C-3.3 °C32 %1024.7 hPa16.1 kmCalmClear
6:53 PM11.7 °C-5 °C31 %1024.7 hPa16.1 kmNE (40°)9.3 km/hClear
7:53 PM9.4 °C-1.1 °C48 %1025.4 hPa16.1 kmEast (90°)14.8 km/hClear
8:53 PM8.3 °C-0.6 °C54 %1026.4 hPa16.1 kmEast (80°)11.1 km/hClear
9:53 PM7.2 °C-0.6 °C58 %1027.1 hPa16.1 kmEast (100°)11.1 km/hClear
10:53 PM6.7 °C0 °C63 %1027.8 hPa16.1 kmEast (80°)11.1 km/hClear
11:53 PM7.2 °C0 °C60 %1027.8 hPa16.1 kmEast (80°)14.8 km/hClear
Hourly data recorded from KCPS, located 0 kilometers away from St. Louis - Saint Louis University, Missouri







STORIES FROM OUR PARTNERS